| time (UTC) | temp F | wind direction | speed MPH | gust MPH | rain 1hr in | rain 24hr in | rain mn in | humidity % | barometer mb |
| 20260906124523 | 66 | 85 | 4.0 | 6.0 | 0.00 | 0.00 | 0.00 | 51 | 1020.1 |
| 20260906123523 | 66 | 258 | 2.0 | 4.0 | 0.00 | 0.00 | 0.00 | 50 | 1019.9 |
| 20260906122523 | 67 | 268 | 2.0 | 5.0 | 0.00 | 0.00 | 0.00 | 50 | 1019.1 |
| 20260906121516 | 0 | 201 | 2.0 | 3.0 | 0.00 | 0.00 | 0.00 | 1019.1 | |
| 20260906120518 | 67 | 192 | 1.0 | 2.0 | 0.00 | 0.00 | 0.00 | 51 | 1019.1 |
| 20260906115523 | 66 | 157 | 2.0 | 4.0 | 0.00 | 0.00 | 0.00 | 51 | 1019.1 |
| 20260906114522 | 66 | 59 | 3.0 | 5.0 | 0.00 | 0.00 | 0.00 | 51 | 1019.1 |
| 20260906113524 | 67 | 94 | 3.0 | 6.0 | 0.00 | 0.00 | 0.00 | 51 | 1019.1 |
| 20260906112523 | 66 | 200 | 2.0 | 3.0 | 0.00 | 0.00 | 0.00 | 51 | 1019.1 |
| 20260906111525 | 65 | 185 | 2.0 | 5.0 | 0.00 | 0.00 | 0.00 | 52 | 1018.1 |
| 20260906110534 | 65 | 268 | 2.0 | 4.0 | 0.00 | 0.00 | 0.00 | 53 | 1018.1 |
| 20260906105524 | 64 | 23 | 4.0 | 9.0 | 0.00 | 0.00 | 0.00 | 53 | 1018.1 |
| 20260906104523 | 64 | 81 | 3.0 | 6.0 | 0.00 | 0.00 | 0.00 | 54 | 1018.1 |
| 20260906103517 | 64 | 48 | 3.0 | 7.0 | 0.00 | 0.00 | 0.00 | 54 | 1018.1 |
| 20260906102524 | 65 | 212 | 2.0 | 4.0 | 0.00 | 0.00 | 0.00 | 54 | 1018.1 |
| 20260906101524 | 64 | 35 | 3.0 | 4.0 | 0.00 | 0.00 | 0.00 | 56 | 1018.1 |
| 20260906100543 | 64 | 95 | 3.0 | 4.0 | 0.00 | 0.00 | 0.00 | 57 | 1018.1 |
| 20260906095517 | 63 | 217 | 2.0 | 3.0 | 0.00 | 0.00 | 0.00 | 57 | 1018.1 |
| 20260906094544 | 63 | 162 | 2.0 | 3.0 | 0.00 | 0.00 | 0.00 | 58 | 1018.1 |
| 20260906093522 | 62 | 131 | 2.0 | 3.0 | 0.00 | 0.00 | 0.00 | 60 | 1018.1 |
| 20260906092516 | 62 | 131 | 2.0 | 5.0 | 0.00 | 0.00 | 0.00 | 61 | 1018.1 |
| 20260906091526 | 61 | 109 | 3.0 | 6.0 | 0.00 | 0.00 | 0.00 | 61 | 1017.1 |
| 20260906090524 | 61 | 173 | 2.0 | 2.0 | 0.00 | 0.00 | 0.00 | 61 | 1017.1 |
| 20260906085526 | 61 | 152 | 2.0 | 4.0 | 0.00 | 0.00 | 0.00 | 61 | 1017.1 |
| 20260906084522 | 61 | 142 | 1.0 | 2.0 | 0.00 | 0.00 | 0.00 | 61 | 1017.1 |
| 20260906083524 | 61 | 226 | 2.0 | 4.0 | 0.00 | 0.00 | 0.00 | 62 | 1017.1 |
| 20260906082526 | 60 | 183 | 3.0 | 5.0 | 0.00 | 0.00 | 0.00 | 62 | 1017.1 |
| 20260906081549 | 60 | 234 | 1.0 | 2.0 | 0.00 | 0.00 | 0.00 | 63 | 1016.1 |
| 20260906080523 | 60 | 205 | 2.0 | 3.0 | 0.00 | 0.00 | 0.00 | 64 | 1016.1 |
| 20260906075523 | 60 | 187 | 1.0 | 2.0 | 0.00 | 0.00 | 0.00 | 64 | 1016.1 |
| 20260906074523 | 60 | 232 | 1.0 | 2.0 | 0.00 | 0.00 | 0.00 | 63 | 1016.1 |
| 20260906073522 | 60 | 215 | 1.0 | 4.0 | 0.00 | 0.00 | 0.00 | 63 | 1016.1 |
| 20260906072603 | 59 | 202 | 2.0 | 3.0 | 0.00 | 0.00 | 0.00 | 64 | 1016.1 |
| 20260906071523 | 59 | 188 | 2.0 | 2.0 | 0.00 | 0.00 | 0.00 | 63 | 1015.0 |
| 20260906070543 | 59 | 211 | 1.0 | 2.0 | 0.00 | 0.00 | 0.00 | 63 | 1015.0 |
| 20260906065523 | 59 | 225 | 1.0 | 3.0 | 0.00 | 0.00 | 0.00 | 63 | 1015.0 |
| 20260906064545 | 59 | 239 | 1.0 | 2.0 | 0.00 | 0.00 | 0.00 | 62 | 1015.0 |
| 20260906063523 | 59 | 173 | 2.0 | 3.0 | 0.00 | 0.00 | 0.00 | 62 | 1015.0 |
| 20260906062524 | 59 | 228 | 2.0 | 4.0 | 0.00 | 0.00 | 0.00 | 61 | 1015.0 |
| 20260906061539 | 59 | 193 | 2.0 | 3.0 | 0.00 | 0.00 | 0.00 | 61 | 1015.0 |
| 20260906060523 | 59 | 190 | 1.0 | 2.0 | 0.00 | 0.00 | 0.00 | 62 | 1015.0 |
| 20260906055526 | 59 | 239 | 3.0 | 4.0 | 0.00 | 0.00 | 0.00 | 62 | 1015.0 |
| 20260906054518 | 59 | 224 | 2.0 | 3.0 | 0.00 | 0.00 | 0.00 | 62 | 1015.0 |
| 20260906053523 | 59 | 234 | 2.0 | 3.0 | 0.00 | 0.00 | 0.00 | 62 | 1015.0 |
| 20260906052524 | 59 | 223 | 2.0 | 3.0 | 0.00 | 0.00 | 0.00 | 62 | 1015.0 |
| 20260906051516 | 59 | 178 | 2.0 | 3.0 | 0.00 | 0.00 | 0.00 | 62 | 1014.0 |
| 20260906050517 | 59 | 8 | 2.0 | 4.0 | 0.00 | 0.00 | 0.00 | 63 | 1014.0 |
| 20260906045524 | 59 | 221 | 2.0 | 2.0 | 0.00 | 0.00 | 0.00 | 63 | 1014.0 |
| 20260906044525 | 59 | 220 | 2.0 | 3.0 | 0.00 | 0.00 | 0.00 | 62 | 1014.0 |
| 20260906043603 | 59 | 187 | 2.0 | 4.0 | 0.00 | 0.00 | 0.00 | 62 | 1014.0 |
| 20260906042515 | 59 | 186 | 1.0 | 3.0 | 0.00 | 0.00 | 0.00 | 62 | 1014.0 |
| 20260906041544 | 59 | 224 | 1.0 | 2.0 | 0.00 | 0.00 | 0.00 | 62 | 1014.0 |
| 20260906040523 | 59 | 186 | 1.0 | 3.0 | 0.00 | 0.00 | 0.00 | 62 | 1014.0 |
| 20260906035518 | 59 | 212 | 2.0 | 2.0 | 0.00 | 0.00 | 0.00 | 62 | 1014.0 |
| 20260906034516 | 59 | 222 | 1.0 | 2.0 | 0.00 | 0.00 | 0.00 | 62 | 1014.0 |
| 20260906033523 | 59 | 240 | 1.0 | 2.0 | 0.00 | 0.00 | 0.00 | 62 | 1014.0 |
| 20260906032544 | 59 | 224 | 1.0 | 2.0 | 0.00 | 0.00 | 0.00 | 62 | 1014.0 |
| 20260906031523 | 59 | 300 | 2.0 | 2.0 | 0.00 | 0.00 | 0.00 | 62 | 1014.0 |
| 20260906030542 | 59 | 239 | 2.0 | 4.0 | 0.00 | 0.00 | 0.00 | 63 | 1014.0 |
| 20260906025522 | 59 | 231 | 2.0 | 3.0 | 0.00 | 0.00 | 0.00 | 63 | 1014.0 |
| 20260906024517 | 59 | 203 | 2.0 | 4.0 | 0.00 | 0.00 | 0.00 | 63 | 1014.0 |
| 20260906023522 | 59 | 174 | 1.0 | 2.0 | 0.00 | 0.00 | 0.00 | 64 | 1014.0 |
| 20260906022523 | 59 | 221 | 1.0 | 2.0 | 0.00 | 0.00 | 0.00 | 64 | 1014.0 |
| 20260906021523 | 59 | 248 | 1.0 | 3.0 | 0.00 | 0.00 | 0.00 | 64 | 1014.0 |
| 20260906020523 | 59 | 227 | 1.0 | 2.0 | 0.00 | 0.00 | 0.00 | 65 | 1014.0 |
| 20260906015523 | 59 | 195 | 1.0 | 2.0 | 0.00 | 0.00 | 0.00 | 65 | 1014.0 |
| 20260906014541 | 59 | 225 | 1.0 | 2.0 | 0.00 | 0.00 | 0.00 | 66 | 1014.0 |
| 20260906013526 | 59 | 203 | 0.0 | 1.0 | 0.00 | 0.00 | 0.00 | 66 | 1014.0 |
| 20260906012523 | 59 | 225 | 1.0 | 1.0 | 0.00 | 0.00 | 0.00 | 65 | 1014.0 |
| 20260906011523 | 59 | 160 | 1.0 | 1.0 | 0.00 | 0.00 | 0.00 | 65 | 1014.0 |
| 20260906010552 | 59 | 224 | 1.0 | 2.0 | 0.00 | 0.00 | 0.00 | 65 | 1014.0 |
| 20260906005543 | 59 | 222 | 1.0 | 2.0 | 0.00 | 0.00 | 0.00 | 65 | 1014.0 |
| 20260906004517 | 59 | 208 | 1.0 | 1.0 | 0.00 | 0.00 | 0.00 | 64 | 1014.0 |
| 20260906003522 | 59 | 235 | 1.0 | 2.0 | 0.00 | 0.00 | 0.00 | 64 | 1014.0 |
| 20260906002524 | 59 | 225 | 0.0 | 1.0 | 0.00 | 0.00 | 0.00 | 64 | 1014.0 |
| 20260906001516 | 59 | 238 | 2.0 | 4.0 | 0.00 | 0.00 | 0.00 | 64 | 1014.0 |
| 20260906000557 | 0 | 23 | 1.0 | 1.0 | 0.00 | 0.00 | 0.00 | 1014.0 | |
| 20260906000019 | 59 | 207 | 2.0 | 2.0 | 0.00 | 0.00 | 0.00 | 64 | 1014.0 |
| 20260905235023 | 59 | 243 | 1.0 | 2.0 | 0.00 | 0.00 | 0.00 | 64 | 1014.0 |
| 20260905234023 | 59 | 214 | 1.0 | 2.0 | 0.00 | 0.00 | 0.00 | 64 | 1013.0 |
| 20260905233022 | 59 | 209 | 1.0 | 2.0 | 0.00 | 0.00 | 0.00 | 64 | 1013.0 |
| 20260905232024 | 60 | 176 | 0.0 | 1.0 | 0.00 | 0.00 | 0.00 | 63 | 1013.0 |
| 20260905231018 | 60 | 206 | 1.0 | 2.0 | 0.00 | 0.00 | 0.00 | 63 | 1013.0 |
| 20260905230034 | 60 | 231 | 2.0 | 3.0 | 0.00 | 0.00 | 0.00 | 62 | 1013.0 |
| 20260905225020 | 60 | 209 | 1.0 | 1.0 | 0.00 | 0.00 | 0.00 | 61 | 1013.0 |
| 20260905224024 | 60 | 216 | 2.0 | 2.0 | 0.00 | 0.00 | 0.00 | 61 | 1013.0 |
| 20260905223042 | 60 | 216 | 1.0 | 2.0 | 0.00 | 0.00 | 0.00 | 60 | 1013.0 |
| 20260905222143 | 60 | 203 | 1.0 | 2.0 | 0.00 | 0.00 | 0.00 | 59 | 1013.0 |
| 20260905221023 | 60 | 240 | 1.0 | 2.0 | 0.00 | 0.00 | 0.00 | 59 | 1013.0 |
| 20260905220022 | 60 | 128 | 1.0 | 3.0 | 0.00 | 0.00 | 0.00 | 59 | 1013.0 |
| 20260905215023 | 61 | 234 | 1.0 | 2.0 | 0.00 | 0.00 | 0.00 | 59 | 1013.0 |
| 20260905214037 | 61 | 248 | 1.0 | 1.0 | 0.00 | 0.00 | 0.00 | 58 | 1013.0 |
| 20260905213033 | 61 | 239 | 1.0 | 2.0 | 0.00 | 0.00 | 0.00 | 57 | 1013.0 |
| 20260905212024 | 61 | 210 | 1.0 | 1.0 | 0.00 | 0.00 | 0.00 | 56 | 1013.0 |
| 20260905211023 | 61 | 205 | 1.0 | 3.0 | 0.00 | 0.00 | 0.00 | 55 | 1013.0 |
| 20260905210020 | 61 | 211 | 1.0 | 4.0 | 0.00 | 0.00 | 0.00 | 54 | 1012.7 |
| 20260905205027 | 62 | 220 | 0.0 | 1.0 | 0.00 | 0.00 | 0.00 | 53 | 1012.0 |
| 20260905204023 | 62 | 224 | 0.0 | 1.0 | 0.00 | 0.00 | 0.00 | 53 | 1012.0 |
| 20260905203044 | 62 | 225 | 1.0 | 2.0 | 0.00 | 0.00 | 0.00 | 53 | 1012.0 |
| 20260905202024 | 62 | 200 | 2.0 | 3.0 | 0.00 | 0.00 | 0.00 | 52 | 1012.0 |
| 20260905201023 | 62 | 257 | 1.0 | 3.0 | 0.00 | 0.00 | 0.00 | 52 | 1012.0 |
| 20260905200023 | 62 | 204 | 1.0 | 1.0 | 0.00 | 0.00 | 0.00 | 53 | 1012.0 |
| 20260905195022 | 62 | 58 | 3.0 | 5.0 | 0.00 | 0.00 | 0.00 | 54 | 1012.0 |
| 20260905194022 | 63 | 202 | 1.0 | 2.0 | 0.00 | 0.00 | 0.00 | 53 | 1012.0 |
| 20260905193043 | 62 | 241 | 1.0 | 2.0 | 0.00 | 0.00 | 0.00 | 54 | 1012.0 |
| 20260905192024 | 63 | 200 | 1.0 | 2.0 | 0.00 | 0.08 | 0.00 | 53 | 1012.0 |
| 20260905191018 | 63 | 237 | 1.0 | 3.0 | 0.00 | 0.08 | 0.00 | 53 | 1012.0 |
| 20260905190027 | 63 | 229 | 1.0 | 2.0 | 0.00 | 0.08 | 0.00 | 52 | 1012.0 |
| 20260905185017 | 63 | 209 | 1.0 | 2.0 | 0.00 | 0.08 | 0.00 | 51 | 1012.0 |
| 20260905184023 | 63 | 233 | 1.0 | 2.0 | 0.00 | 0.08 | 0.00 | 50 | 1012.0 |
| 20260905183023 | 64 | 196 | 1.0 | 1.0 | 0.00 | 0.08 | 0.00 | 49 | 1012.3 |
| 20260905182023 | 64 | 226 | 1.0 | 2.0 | 0.00 | 0.08 | 0.00 | 48 | 1013.0 |
| 20260905181123 | 64 | 0.0 | 0.0 | 0.00 | 0.08 | 0.00 | 48 | 1012.0 | |
| 20260905180018 | 64 | 206 | 1.0 | 2.0 | 0.00 | 0.08 | 0.00 | 48 | 1012.0 |
| 20260905175023 | 64 | 213 | 1.0 | 1.0 | 0.00 | 0.08 | 0.00 | 48 | 1012.0 |
| 20260905174023 | 64 | 248 | 0.0 | 1.0 | 0.00 | 0.08 | 0.00 | 47 | 1012.0 |
| 20260905173023 | 65 | 203 | 0.0 | 2.0 | 0.00 | 0.08 | 0.00 | 46 | 1012.0 |
| 20260905172023 | 65 | 241 | 1.0 | 2.0 | 0.00 | 0.08 | 0.00 | 46 | 1012.0 |
| 20260905171044 | 65 | 225 | 1.0 | 4.0 | 0.00 | 0.08 | 0.00 | 46 | 1012.0 |
| 20260905170022 | 65 | 202 | 1.0 | 3.0 | 0.00 | 0.08 | 0.00 | 45 | 1012.0 |
| 20260905165019 | 65 | 203 | 1.0 | 2.0 | 0.00 | 0.08 | 0.00 | 45 | 1012.0 |
| 20260905164016 | 65 | 174 | 0.0 | 1.0 | 0.00 | 0.08 | 0.00 | 44 | 1012.0 |
| 20260905163018 | 65 | 210 | 1.0 | 2.0 | 0.00 | 0.08 | 0.00 | 44 | 1012.0 |
| 20260905162017 | 65 | 225 | 2.0 | 3.0 | 0.00 | 0.08 | 0.00 | 43 | 1012.0 |
| 20260905161023 | 65 | 82 | 2.0 | 4.0 | 0.00 | 0.08 | 0.00 | 43 | 1012.0 |
| 20260905160015 | 66 | 226 | 1.0 | 2.0 | 0.00 | 0.08 | 0.00 | 43 | 1012.0 |
| 20260905155022 | 66 | 224 | 2.0 | 3.0 | 0.00 | 0.08 | 0.00 | 43 | 1012.0 |
| 20260905154018 | 66 | 236 | 2.0 | 3.0 | 0.00 | 0.08 | 0.00 | 42 | 1012.0 |
| 20260905153043 | 67 | 226 | 1.0 | 2.0 | 0.00 | 0.08 | 0.00 | 41 | 1012.0 |
| 20260905152023 | 67 | 177 | 1.0 | 2.0 | 0.00 | 0.08 | 0.00 | 42 | 1012.0 |
| 20260905151024 | 68 | 237 | 2.0 | 6.0 | 0.00 | 0.08 | 0.00 | 41 | 1012.0 |
| 20260905150023 | 68 | 202 | 2.0 | 3.0 | 0.00 | 0.08 | 0.00 | 40 | 1011.7 |
| 20260905145016 | 69 | 244 | 1.0 | 2.0 | 0.00 | 0.08 | 0.00 | 40 | 1011.0 |
| 20260905144023 | 69 | 263 | 2.0 | 5.0 | 0.00 | 0.08 | 0.00 | 40 | 1011.0 |
| 20260905143019 | 70 | 215 | 2.0 | 4.0 | 0.00 | 0.08 | 0.00 | 39 | 1011.0 |
| 20260905142045 | 71 | 208 | 2.0 | 3.0 | 0.00 | 0.08 | 0.00 | 39 | 1011.0 |
| 20260905141522 | 71 | 215 | 2.0 | 2.0 | 0.00 | 0.08 | 0.00 | 39 | 1011.0 |
| 20260905140523 | 71 | 204 | 2.0 | 5.0 | 0.00 | 0.08 | 0.00 | 39 | 1011.0 |
| 20260905135522 | 73 | 176 | 2.0 | 3.0 | 0.00 | 0.08 | 0.00 | 40 | 1011.0 |
| 20260905134523 | 71 | 219 | 2.0 | 4.0 | 0.00 | 0.08 | 0.00 | 41 | 1011.0 |
| 20260905133522 | 70 | 180 | 2.0 | 4.0 | 0.00 | 0.08 | 0.00 | 41 | 1011.0 |
| 20260905132526 | 71 | 149 | 2.0 | 3.0 | 0.00 | 0.08 | 0.00 | 41 | 1011.0 |
| 20260905131525 | 70 | 263 | 2.0 | 3.0 | 0.00 | 0.08 | 0.00 | 40 | 1011.0 |
| 20260905130523 | 71 | 33 | 2.0 | 2.0 | 0.00 | 0.08 | 0.00 | 39 | 1011.0 |
| 20260905125528 | 72 | 273 | 3.0 | 4.0 | 0.00 | 0.08 | 0.00 | 40 | 1010.0 |